This is the latest recevied weather packets stored in our database for station/object KD2DXJ. If no packets are shown the sender has not sent any weather packets the latest 10 day(s).
| Time | Temp. | Humidity | Pressure | Rain* | Wind** | Luminosity | Snow |
|---|---|---|---|---|---|---|---|
| 1777558931 | 5.56° C | 99% | 1007.6 hPa | 0 mm | - | 77 W/m² | - |
| 1777558628 | 5.56° C | 99% | 1007.4 hPa | 0 mm | - | 82 W/m² | - |
| 1777558323 | 5.56° C | 99% | 1007.5 hPa | 0 mm | - | 68 W/m² | - |
| 1777558021 | 5.56° C | 99% | 1007.6 hPa | 0 mm | - | 96 W/m² | - |
| 1777557716 | 5.56° C | 99% | 1007.5 hPa | 0 mm | - | 122 W/m² | - |
| 1777557413 | 5.56° C | 99% | 1007.5 hPa | 0 mm | - | 159 W/m² | - |
| 1777557110 | 5° C | 99% | 1007.5 hPa | 0 mm | - | 116 W/m² | - |
| 1777556805 | 5° C | 99% | 1007.5 hPa | 0 mm | - | 75 W/m² | - |
| 1777556502 | 5° C | 99% | 1007.5 hPa | 0 mm | - | 62 W/m² | - |
| 1777556201 | 5° C | 99% | 1007.3 hPa | 0 mm | - | 63 W/m² | - |
| 1777555897 | 5° C | 99% | 1007.4 hPa | 0 mm | - | 78 W/m² | - |
| 1777555593 | 5.56° C | 99% | 1007.4 hPa | 0 mm | - | 73 W/m² | - |
| 1777555291 | 5° C | 99% | 1007.4 hPa | 0 mm | - | 54 W/m² | - |
| 1777554987 | 5.56° C | 99% | 1007.4 hPa | 0 mm | - | 54 W/m² | - |
| 1777554684 | 5° C | 99% | 1007.3 hPa | 0 mm | - | 71 W/m² | - |
| 1777554381 | 5° C | 99% | 1007.2 hPa | 0 mm | - | 91 W/m² | - |
| 1777554077 | 5° C | 99% | 1007.3 hPa | 0 mm | - | 53 W/m² | - |
| 1777553774 | 5° C | 99% | 1007.3 hPa | 0 mm | - | 50 W/m² | - |
| 1777553471 | 5.56° C | 99% | 1007.4 hPa | 0 mm | - | 46 W/m² | - |
| 1777553166 | 5° C | 99% | 1007.3 hPa | 0 mm | - | 51 W/m² | - |
| 1777552862 | 5° C | 99% | 1007.6 hPa | 0 mm | - | 40 W/m² | - |
| 1777552557 | 5° C | 99% | 1007.5 hPa | 0 mm | - | 35 W/m² | - |
| 1777552254 | 5° C | 99% | 1007.4 hPa | 0 mm | - | 33 W/m² | - |
| 1777551950 | 5° C | 99% | 1007.3 hPa | 0 mm | - | 32 W/m² | - |
| 1777551648 | 5° C | 99% | 1007.4 hPa | 0 mm | - | 27 W/m² | - |
* Rain latest hour (hover to see other rain measurements)
** Current wind speed in m/s (hover to see current wind gust speed)